Regional Weather Roundup
Issued by NWS

Home | Current Version | Previous Version | Text Only | Print | Product List | Glossary Off
Versions: 1 2 3 4 5 6 7 8 9 10 11 12 13 14 15 16 17 18 19 20 21 22 23 24 25 26 27 28 29 30 31 32 33 34 35 36 37 38 39 40 41 42 43 44 45 46 47 48 49 50

000
ASUS43 KDMX 201101
RWRIA

WEATHER ROUNDUP FOR IOWA
NATIONAL WEATHER SERVICE DES MOINES IA
600 AM CDT SUN MAY 20 2018

NOTE: "FAIR" INDICATES FEW OR NO CLOUDS BELOW 12,000 FEET WITH NO
SIGNIFICANT WEATHER AND/OR OBSTRUCTIONS TO VISIBILITY.

* - THESE STATIONS ARE NOT NWS STATIONS...THUS NOT UNDER NWS
QUALITY CONTROL.  THEY ALSO DO NOT REPORT WEATHER SUCH
AS PRECIPITATION OR FOG.

IAZ001>003-012>014-020>022-031>034-043>046-201200-
   NORTHWEST IOWA

CITY           SKY/WX    TMP DP  RH WIND       PRES   REMARKS
CARROLL *      CLOUDY   N/A N/A N/A NE9       30.09R
CHEROKEE *     CLOUDY    50  48  92 NE8       30.14R
DENISON *      CLOUDY    52  50  93 N9        30.11R
LE MARS *      CLOUDY    52  48  87 NE12      30.13R
ORANGE CITY *  CLOUDY    52  46  82 NE7       30.13R
SHELDON *      CLOUDY    50  48  93 NE14      30.12S
SIOUX CITY     CLOUDY    53  48  83 NE9       30.11R
SPENCER        CLOUDY    51  45  79 NE8       30.14R
STORM LAKE *   CLOUDY    50  46  87 NE13      30.12R
$$

IAZ055>058-069>071-079>083-090>094-201200-
   SOUTHWEST IOWA

CITY           SKY/WX    TMP DP  RH WIND       PRES   REMARKS
ATLANTIC *     CLOUDY    55  54  94 N8        30.06S
AUDUBON *      CLOUDY    54  50  87 N7        30.09R
CLARINDA *       N/A     57  55  94 N6        30.06S
COUNCIL BLFS * DRIZZLE   55  55 100 NE13      30.05F
CRESTON *      CLOUDY    55  54  94 NE12      30.04F
HARLAN  *      CLOUDY    54  54 100 NE9G16    30.12R
LAMONI         MOCLDY    57  56  96 N8        30.02F FOG
RED OAK *      PTCLDY    55  54  94 MISG      30.04F
SHENANDOAH *   CLOUDY    57  55  94 NE7       30.04S
$$

IAZ047>049-059>061-072>074-084-201200-
   CENTRAL IOWA

CITY           SKY/WX    TMP DP  RH WIND       PRES   REMARKS
AMES           CLOUDY    55  48  77 N10       30.08R
ANKENY *       CLOUDY    57  52  82 N10       30.07R
BOONE *        CLOUDY    52  48  87 NE14      30.08R
CHARITON *     CLOUDY    59  59 100 N10       30.02S FOG
DES MOINES     CLOUDY    58  52  80 N14       30.04S
GRINNELL*      CLOUDY    58  53  83 N10G17    30.05R
KNOXVILLE *    CLOUDY    61  55  82 N8        30.02R
MARSHALLTOWN   CLOUDY    55  51  86 NE12      30.05S
NEWTON *       CLOUDY    57  54  88 NE14      30.04S
PELLA *        CLOUDY    60  56  86 N7        30.04S
PERRY *        CLOUDY    55  50  83 N6        30.08R
$$

IAZ004>006-015-016-023>025-035-036-201200-
   NORTH CENTRAL IOWA

CITY           SKY/WX    TMP DP  RH WIND       PRES   REMARKS
ALGONA *       CLOUDY    48  45  87 NE15      30.12R
CLARION *      CLOUDY    50  45  81 NE12      30.10R
ESTHERVILLE    CLOUDY    48  43  82 NE14      30.13R
FORT DODGE *   CLOUDY    51  47  86 NE6       30.11R
MASON CITY     LGT RAIN  49  43  80 NE18      30.10R
FOREST CITY *  MOCLDY    50  43  76 NE7       30.12R
WEBSTER CITY * CLOUDY    52  46  82 NE10      30.08R
IOWA FALLS *     N/A     52  48  86 N10       30.10R
$$

IAZ007>011-017>019-026>030-037>042-050>054-066-201200-
   NORTHEAST IOWA

CITY           SKY/WX    TMP DP  RH WIND       PRES   REMARKS
CEDAR RAPIDS   HVY RAIN  64  63  96 E12       30.01R VSB 3/4
CHARLES CITY * LGT RAIN  50  45  81 NE15      30.10R
CLINTON *      CLOUDY    59  56  89 E18       30.05R
DECORAH *      CLOUDY    48  46  93 NE7       30.10R
DUBUQUE        HVY RAIN  57  56  96 NE15      30.08R FOG
MONTICELLO *   DRIZZLE   59  59 100 N13       30.04R
OELWEIN *      CLOUDY    54  50  87 NE10      30.08R
WATERLOO       CLOUDY    53  49  86 N10       30.07R
$$

IAZ064-065-067-068-078-201200-
   EAST CENTRAL IOWA

CITY           SKY/WX    TMP DP  RH WIND       PRES   REMARKS
DAVENPORT      CLOUDY    65  60  84 E13       30.03R
IOWA CITY      FAIR      65  62  90 NE8       30.01R
MUSCATINE *    FAIR      64  63  94 E5        30.00R
QUAD CITIES    MOCLDY    66  61  84 E18       30.00S
$$

IAZ062-063-075>077-085>089-095>099-201200-
   SOUTHEAST IOWA

CITY           SKY/WX    TMP DP  RH WIND       PRES   REMARKS
BURLINGTON     MOCLDY    65  62  90 SW7       30.00R
FAIRFIELD *    FOG       63  63 100 W6        30.00S VSB 1
FORT MADISON * CLOUDY    64  64 100 SW5       30.02R
KEOKUK *       CLOUDY    64  63  94 SW6       30.00S
OSKALOOSA *    CLOUDY    60  60  99 N3        30.03R FOG
CENTERVILLE *    N/A     59  59 100 CALM      30.04S
OTTUMWA        CLOUDY    62  61  96 NW9       30.01R FOG
WASHINGTON *   FOG       61  61 100 W5        30.01R VSB 1
$$

ABBREVIATIONS USED IN REMARKS
   TC - TEMPERATURES IN CELSIUS
  WCI - WIND CHILL INDEX
   HX - HEAT INDEX
  VSB - VISIBILITY
$$





USA.gov is the U.S. government's official web portal to all federal, state and local government web resources and services.